Regional Weather Roundup
Issued by NWS Huntsville, AL

Home | Current Version | Previous Version | Text Only | Print | Product List | Glossary On
Versions: 1 2 3 4 5 6 7 8 9 10 11 12 13 14 15 16 17 18 19 20 21 22 23 24 25 26 27
000
ASUS44 KHUN 241310
RWRHUN

WEATHER ROUNDUP FOR THE TENNESSEE VALLEY
NATIONAL WEATHER SERVICE HUNTSVILLE AL
800 AM CDT WED AUG 24 2016

ALZ001>004-241400-
NORTHWEST ALABAMA

CITY           SKY/WX    TMP DP  RH WIND       PRES   REMARKS
COURTLAND HCN    N/A     73 N/A N/A CALM        N/A
SHOALS AIRPORT SUNNY     77  71  82 CALM      30.23R
SHOALS TVA RES   N/A     73 N/A N/A MISG        N/A
$$

ALZ005>007-016-241400-
NORTH CENTRAL ALABAMA

CITY           SKY/WX    TMP DP  RH WIND       PRES   REMARKS
CULLMAN AG STN   N/A     75 N/A N/A CALM        N/A
DECATUR AP     SUNNY     76  71  85 E6        30.23R
HUNTSVILLE AP  MOSUNNY   77  69  76 SE6       30.23R
MERIDIANVILLE  SUNNY     73  64  73 SE3       30.24R
REDSTONE ARSN  SUNNY     76  72  87 CALM      30.22R
VINEMONT AP    FAIR      77  71  80 CALM      30.26S
$$

ALZ008>010-241400-
NORTHEAST ALABAMA

CITY           SKY/WX    TMP DP  RH WIND       PRES   REMARKS
ALBERTVILLE    SUNNY     75  75 100 CALM      30.25R
FORT PAYNE     PTSUNNY   75  68  78 SE3       30.26R
SCOTTSBORO AP  SUNNY     73  73 100 NE5       30.26R
SCOTTSBORO HCN   N/A     72 N/A N/A MISG        N/A
VALLEY HEAD      N/A     75 N/A N/A MISG        N/A
$$

TNZ076-096-097-241400-
SOUTHEASTERN MIDDLE TENNESSEE

CITY           SKY/WX    TMP DP  RH WIND       PRES   REMARKS
TULLAHOMA      SUNNY     73  70  88 S3        30.26S
WINCHESTER     SUNNY     75  72  88 SE3       30.25S
$$

...SURROUNDING SITES...

CITY           SKY/WX    TMP DP  RH WIND       PRES   REMARKS
ATLANTA        PTSUNNY   77  73  87 SE6       30.28S
ANNISTON       SUNNY     78  71  79 NE6       30.25R
BIRMINGHAM     MOSUNNY   79  73  82 SE3       30.25R
CHATTANOOGA    CLOUDY    77  69  76 CALM      30.26S
DALTON         CLOUDY    73  70  88 CALM      30.27R
GADSDEN        SUNNY     78  74  87 VRB3      30.25R
GOLDEN TRNGL   SUNNY     79  72  78 CALM      30.19R
HALEYVILLE     FAIR      78  71  79 S5        30.25S
JACKSON TN     MOSUNNY   76  74  93 CALM      30.19R
MEMPHIS        MOSUNNY   82  75  79 S3        30.18R
NASHVILLE      CLOUDY    75  70  84 SE3       30.23R
OXFORD MS      FAIR      75  73  94 CALM      30.21R
ROME           MOSUNNY   76  70  82 CALM      30.26R
SAVANNAH       SUNNY     75  73  94 CALM      30.20S
TUPELO         SUNNY     80  73  79 CALM      30.20R
TUSCALOOSA     SUNNY     79  76  90 CALM      30.20R
$$

...GULF COAST WEATHER...

CITY           SKY/WX    TMP DP  RH WIND       PRES   REMARKS
GULFPORT       MOSUNNY   80  76  87 NE5       30.15R
PASCAGOULA     MOSUNNY   82  80  94 N3        30.16R HX  94
MOBILE         PTSUNNY   82  76  81 NE7       30.18R
GULF SHORES    MOSUNNY   81  81 100 E3        30.15S HX  93
PENSACOLA      PTSUNNY   83  79  88 E8        30.15S HX  94
DESTIN         SUNNY     83  77  82 E8        30.17R HX  92
PANAMA CITY    MOSUNNY   79  75  89 NE6       30.18R
APPALACHICOLA  PTSUNNY   81  80  97 NE6       30.15S HX  91
$$





USA.gov is the U.S. government's official web portal to all federal, state and local government web resources and services.